Weather History for KBRL - July, 2013

Change the Weather History Date:

Tuesday, July 23, 2013

  Actual Average Record
Temperature  
Mean Temperature 71 °F 77 °F  
Max Temperature 78 °F 87 °F 108 °F (1934)
Min Temperature 64 °F 67 °F 50 °F (1947)
Degree Days  
Heating Degree Days 0 0  
Month to date heating degree days 0 0  
Since 1 June heating degree days 15 13  
Since 1 July heating degree days 0 0  
Cooling Degree Days 6 12  
Month to date cooling degree days 273 276  
Year to date cooling degree days 580 639  
Since 1 June cooling degree days 481 536  
Growing Degree Days 20 (Base 50)    
Moisture  
Dew Point 62 °F    
Average Humidity 77    
Maximum Humidity 93    
Minimum Humidity 60    
Precipitation  
Precipitation 0.00 in 0.13 in 1.34 in (2011)
Month to date precipitation 0.28 3.21  
Year to date precipitation 25.75 21.94  
Sea Level Pressure  
Sea Level Pressure 29.87 in    
Wind  
Wind Speed 7 mph (NNW)    
Max Wind Speed 16 mph    
Max Gust Speed 21 mph    
Visibility 10 miles    
Events      
T = Trace of Precipitation, MM = Missing Value Source: NWS Daily Summary

Daily Weather History Graph

Daily Weather History Graph

Search for Another Location

Airport or City:

Trip Planner

Search our weather history database for the weather conditions in past years. The results will help you decide how hot, cold, wet, or windy it might be!

Date:

Astronomy

Jul. 23, 2013 Rise Set
Actual Time 5:52 AM CDT 8:28 PM CDT
Civil Twilight 5:21 AM CDT 9:00 PM CDT
Nautical Twilight 4:41 AM CDT 9:39 PM CDT
Astronomical Twilight 3:57 AM CDT 10:23 PM CDT
Moon 8:55 PM CDT (7/23) 7:02 AM CDT (7/23)
Length of Visible Light 15h 38m
Length of Day
14h 35m
Full, 99% of the Moon is Illuminated
Jul 23
Full
Jul 29
Last Quarter
Aug 6
New
Aug 14
First Quarter
Aug 20
Full

Hourly Weather History & Observations

Time (CDT) Temp. Dew Point Humidity Pressure Visibility Wind Dir Wind Speed Gust Speed Precip Events Conditions
12:53 AM 71.1 °F 63.0 °F 75% 29.78 in 10.0 mi SSW 8.1 mph - N/A   Clear
1:53 AM 68.0 °F 63.0 °F 84% 29.81 in 10.0 mi East 5.8 mph - N/A   Clear
2:53 AM 66.0 °F 64.0 °F 93% 29.81 in 10.0 mi West 3.5 mph - N/A   Clear
3:53 AM 66.0 °F 63.0 °F 90% 29.81 in 10.0 mi West 4.6 mph - N/A   Clear
4:53 AM 66.0 °F 63.0 °F 90% 29.80 in 10.0 mi NNW 4.6 mph - N/A   Clear
5:53 AM 66.0 °F 63.0 °F 90% 29.79 in 10.0 mi NNW 5.8 mph - N/A   Clear
6:53 AM 69.1 °F 63.0 °F 81% 29.83 in 10.0 mi NW 5.8 mph - N/A   Clear
7:53 AM 71.1 °F 64.0 °F 78% 29.84 in 10.0 mi NNW 9.2 mph - N/A   Clear
8:53 AM 73.9 °F 66.0 °F 76% 29.85 in 10.0 mi North 6.9 mph - N/A   Clear
9:53 AM 75.0 °F 66.9 °F 76% 29.88 in 10.0 mi NNW 9.2 mph - N/A   Overcast
10:53 AM 77.0 °F 66.9 °F 71% 29.88 in 10.0 mi North 8.1 mph - N/A   Scattered Clouds
11:53 AM 77.0 °F 63.0 °F 62% 29.90 in 10.0 mi North 13.8 mph - N/A   Partly Cloudy
12:53 PM 77.0 °F 63.0 °F 62% 29.91 in 10.0 mi NNW 6.9 mph 19.6 mph N/A   Clear
1:53 PM 75.9 °F 62.1 °F 62% 29.90 in 10.0 mi North 13.8 mph 20.7 mph N/A   Clear
2:53 PM 75.9 °F 61.0 °F 60% 29.90 in 10.0 mi North 11.5 mph 18.4 mph N/A   Clear
3:53 PM 75.9 °F 61.0 °F 60% 29.90 in 10.0 mi NNW 10.4 mph - N/A   Clear
4:53 PM 75.9 °F 61.0 °F 60% 29.88 in 10.0 mi North 10.4 mph - N/A   Clear
5:53 PM 73.0 °F 60.1 °F 64% 29.91 in 9.0 mi NNW 5.8 mph - N/A   Clear
6:53 PM 73.0 °F 59.0 °F 61% 29.89 in 10.0 mi North 9.2 mph - N/A   Clear
7:53 PM 72.0 °F 59.0 °F 64% 29.89 in 10.0 mi North 8.1 mph - N/A   Clear
8:53 PM 69.1 °F 60.1 °F 73% 29.92 in 10.0 mi NW 4.6 mph - N/A   Clear
9:53 PM 68.0 °F 61.0 °F 78% 29.94 in 10.0 mi Calm Calm - N/A   Clear
10:53 PM 64.9 °F 61.0 °F 87% 29.96 in 5.0 mi NW 4.6 mph - N/A   Clear
11:53 PM 64.9 °F 59.0 °F 81% 29.95 in 10.0 mi North 5.8 mph - N/A   Clear